2017 Kona Chocolate Run

Northville, MI
2017-11-19
Starts on: 2017-11-19
Where: Northville, MI
Categories: 5K Cocoa Mile 10K
Description: MICHIGAN’S LARGEST CHOCOLATE PARTY! – Kona Chocolate Run: 10K, 5K Run/Walk, Cocoa Mile ~ A festive race event by Kona Running Co. Celebrate the holidays with Cups of Panera Bread Hot Chocolate, Chocolate Chip Cookies, Guernsey Chocolate Milk & Sanders Chocolate Candy with music in downtown Plymouth! Heated Warming Tent next to Chocolate Buffet Tents - 2017 Kona Triple Crown Series: Complete all 3 of our Kona Running Co. race events (Kona Cheesecake Run, Wicked Halloween Run, and Kona Chocolate Run) in CY 2017 & qualify for some serious extra bling!
F50-54 5K Run/Walk
name bib rank time pace hometown
Charlotte Burke 1601 2 00:25:41 08:17 Canton, MI
Barbara Anderson 261 3 00:26:51 08:39 Warren, MI
Tricia Reiser 107 4 00:26:52 08:40 Ann Arbor, MI
Ana Hotaling 1679 5 00:27:27 08:51 Chelsea, MI
Kimberley Johnson 2860 6 00:28:24 09:09 Saline, MI
Carolyn Mack 820 7 00:28:53 09:19 Canton, MI
Debbie Bellant 166 8 00:29:07 09:23 Lansing, MI
Kris Diaz 1466 9 00:29:37 09:33 Westland, MI
Patricia Queen 912 10 00:29:41 09:34 Westland, MI
Carrie Cutino 6 11 00:29:48 09:36 Novi, MI
Toni Sahutske 64 12 00:29:56 09:39 Commerce Township, MI
Cori Jones 1266 13 00:30:00 09:40 Canton, MI
Lori Flynn 880 14 00:30:00 09:40 Canton, MI
Kathy Seurynck 2232 15 00:30:11 09:44 Plymouth, MI
Jennifer Howard 2618 16 00:30:42 09:53 Linden, MI
Janice Blake 330 17 00:30:47 09:55 Novi, MI
Alita Pitogo 86 18 00:30:51 09:56 Warren, MI
Debbie Heck 1 19 00:31:07 10:01 Canton, MI
Linda Myler 2231 20 00:31:07 10:02 Plymouth, MI
Susan Arlin 25 21 00:31:19 10:05 Farmington, MI
Rhonda Alonzo 27 22 00:31:19 10:06 Farmington, MI
Korina Tucker 276 23 00:31:28 10:08 Saginaw, MI
cindy lalone 772 24 00:32:01 10:19 Canton, MI
Judy Madigan 2721 25 00:32:20 10:25 Farmington, MI
Jan M. Johnson 2192 26 00:32:20 10:25 East Tawas, MI
Tracy Darrow 2337 27 00:32:21 10:25 South Lyon, MI
Carla Garwood 3046 28 00:32:21 10:25 Plymouth, MI
julie Roman-fenwick 2621 29 00:32:30 10:28 Brighton, MI
Tamitha Taylor 1484 30 00:32:33 10:29 Flint, MI
Heidi Glaubitz 1019 31 00:32:33 10:29 Gregory, MI
JEANINE USHER 220 32 00:32:49 10:34 Sparta, MI
Theresa Sigler 1603 33 00:33:17 10:43 Rochester, MI
Bart Hopkins 3114 34 00:33:22 10:45 Canton, MI
linda wojciechowicz 882 35 00:33:22 10:45 Macomb, MI
Patty Seibert 2502 36 00:33:31 10:48 Livonia, MI
Sheila Johnson 2535 37 00:33:36 10:49 Canton, MI
Ellyn Damiani 2848 38 00:33:37 10:50 Plymouth, MI
Kim Oakley 995 39 00:33:53 10:55 Northville, MI
Debbie Reger 2715 40 00:33:54 10:55 Utica, MI
Charlene Hempel 2287 41 00:34:12 11:01 Macomb, MI
LaNean Adams 1483 42 00:34:20 11:04 Flint, MI
Sharon Gibson 1175 43 00:34:31 11:07 Pleasant Ridge, MI
helen Crown 1461 44 00:34:52 11:14 Plymouth, MI
Lisa Bornefeld 2550 45 00:34:53 11:14 Napoleon, MI
Karen Fritz-Sweet 2996 46 00:34:56 11:15 Brighton, MI
Sharon Kuennen 1558 47 00:35:22 11:24 Livonia, MI
Samantha Garland 2751 48 00:35:23 11:24 South Lyon, MI
Carol McConkey 1023 49 00:35:23 11:24 Holly, MI
Lori Walters 1598 50 00:35:27 11:25 Davison, MI
Joy Finkenbiner 1597 51 00:35:28 11:26 Davison, MI
Diana McDaniel 2366 52 00:35:31 11:27 Allegan, MI
rhoda daniel 1462 53 00:36:03 11:37 Midland, MI
Lisa Shmina 2265 54 00:36:03 11:37 Brighton, MI
Sandy Lanza 2673 55 00:36:38 11:48 Macomb, MI
Maria Latham 2199 56 00:36:45 11:50 South Lyon, MI
susan stellini 768 57 00:37:11 11:59 Taylor, MI
Mary Ellen Brennan 706 58 00:37:33 12:06 Bloomfield Hills, MI
Lori Bossio 1200 59 00:38:13 12:19 Canton, MI
Shellie Stowell 1457 60 00:38:20 12:21 Troy, MI
Lenora Sheeran 628 61 00:38:24 12:22 Dearborn, MI
Ann Beck 2728 62 00:38:25 12:23 Midland, MI
Angela Nicolaou 1494 63 00:38:30 12:24 Sterling Heights, MI
Stephanie Abrams 2827 64 00:38:44 12:29 Flint, MI
Celeste Mayes 1383 65 00:38:48 12:30 Temperance, MI
Lori Konieczka 2534 66 00:39:03 12:35 Davison, MI
Jill Sloan 256 67 00:39:16 12:39 Columbiaville, MI
Jackie Stout 2647 68 00:39:25 12:42 Trenton, MI
Ann Sinelli 98 69 00:39:34 12:45 Dexter, MI
Kristine Tsai 2603 70 00:39:45 12:48 Troy, MI
Angie Javarinis 2630 71 00:39:49 12:49 Flat Rock, MI
Lisa Peers 2480 72 00:39:49 12:50 Birmingham, MI
kathy gomez 1419 73 00:40:10 12:56 Swartz Creek, MI
Elaine Fleck 2258 74 00:40:27 13:02 Kalamazoo, MI
Rhonda Collins 233 75 00:41:12 13:16 Muskegon, MI
Mary Thibert 34 76 00:41:24 13:20 Tecumseh, --
Barbara Tate-Renaud 1316 77 00:41:30 13:22 Warren, MI
Debbie Paliani 956 78 00:41:54 13:30 Ypsilanti, MI
Raelona Thomas 867 79 00:42:15 13:37 Clinton Township, MI
Annie Moore 237 80 00:42:20 13:38 Franklin, MI
Lois Williams 2417 81 00:42:30 13:41 Berkley, MI
Marilyn Barriera 3071 82 00:42:32 13:42 Canton, MI
Dianna LaFraugh 1471 83 00:42:38 13:44 Jackson, MI
Brenda Begley 761 84 00:42:49 13:47 Highland, MI
Dawn Evans 267 85 00:42:50 13:48 Ann Arbor, MI
Cindy Livingston 1231 86 00:43:14 13:56 Rochester, MI
Rebecca Degan 2168 87 00:43:40 14:04 Waterford, MI
Janis Wickersham 1495 88 00:43:56 14:09 Warren, MI
Debra Edwards 1441 89 00:43:58 14:10 Macomb, MI
Ruthie Sudduth 708 90 00:44:02 14:11 Ypsilanti, MI
Linda McBroom 1032 91 00:44:20 14:17 Northville, MI
Stephaie Smith 2931 92 00:44:23 14:18 West Bloomfield, MI
Donna Toth 2592 93 00:44:24 14:18 Huron Park, --
Kimberly Foster 2736 94 00:44:35 14:22 Gaylord, MI
Michelle Gross 2307 95 00:45:07 14:32 Trenton, MI
Lori Miles 1467 96 00:45:27 14:38 Plymouth, MI
Donna McNeill 2586 97 00:45:36 14:41 South Lyon, MI
Kelly Thornsbury 1649 98 00:46:40 15:02 Belleville, MI
Jacqueline Brown 260 99 00:46:41 15:02 Washington, MI
Clarise Gallagher 2755 100 00:46:52 15:06 Rochester, MI
Lynda Racey 2200 101 00:47:15 15:13 Plymouth, MI

Next Page